• Join FlightAware (Why Join?)
  • Login
  • US Flag 
06:15AM EST


 

Airport Tracker/Info


-or-


 

Live Flight TrackerFlight Track Log ✈ AWE1600 ✈ 24-May-2013 ✈ KPHL - KDTW

Flight Track Log - Related Links

Times and Time Zones

All times are in EDT time to prevent confusion due to time zone crossing. See the AWE1600 flight status page for this flight to view local times or setup timezone preferences in your user account.

Time Position Orientation Groundspeed Altitude Reporting Facility
EDT Latitude Longitude Course Direction KTS MPH feet Rate Location/Type
09:57AM 39.8667 -75.2833 270° West 145 167 1,100  Level Philadelphia TRACON
09:59AM 39.9000 -75.5617 270° West  Level FlightAware Approximate
09:59AM 39.8519 -75.4461 263° West 211 243 5,400  Level New York Center
10:00AM 39.9158 -75.6719 258° West  Level FlightAware Approximate
10:00AM 39.8717 -75.5286 287° West 238 274 8,100  Level New York Center
10:01AM 39.9000 -75.7835 270° West  Level FlightAware Approximate
10:01AM 39.9050 -75.6336 293° West 274 315 11,200  Level New York Center
10:02AM 39.9001 -75.8973 270° West  Level FlightAware Approximate
10:02AM 39.9153 -75.7347 278° West 296 341 12,900  Level New York Center
10:03AM 39.9139 -75.8644 269° West 325 374 15,500 2,521 Climbing New York Center
10:04AM 39.9111 -75.9753 268° West 344 396 17,900 2,319 Climbing New York Center
10:05AM 39.9100 -76.0942 269° West 344 396 20,100 1,869 Climbing New York Center
10:06AM 39.9072 -76.2428 269° West 355 409 21,700 1,721 Climbing New York Center
10:07AM 39.9133 -76.3786 273° West 370 426 23,600 1,780 Climbing New York Center
10:08AM 39.9175 -76.5092 272° West 392 451 25,200 1,475 Climbing New York Center
10:09AM 39.9250 -76.6531 274° West 398 458 26,500 1,200 Climbing New York Center
10:10AM 39.9450 -76.7983 280° West 405 466 27,600 1,339 Climbing New York Center
10:11AM 39.9728 -76.9469 284° West 416 479 29,200 1,339 Climbing New York Center
10:12AM 40.0000 -77.0986 283° West 421 484 30,300 1,140 Climbing New York Center
10:13AM 40.0294 -77.2478 285° West 421 484 31,500 1,116 Climbing New York Center
10:15AM 40.0972 -77.6164 284° West 432 497 34,000 758 Climbing Cleveland Center
10:16AM 40.1264 -77.7728 284° West 432 497 34,000  Level Cleveland Center
10:17AM 40.1344 -77.9436 274° West 450 518 34,000  Level Cleveland Center
10:18AM 40.1361 -78.1036 271° West 455 524 34,000  Level Cleveland Center
10:19AM 40.1394 -78.2639 272° West 455 524 34,000  Level Cleveland Center
10:20AM 40.1406 -78.4239 271° West 455 524 34,000  Level Cleveland Center
10:21AM 40.1414 -78.5842 270° West 450 518 34,000  Level Cleveland Center
10:22AM 40.1419 -78.7444 270° West 450 518 34,000  Level Cleveland Center
10:23AM 40.1425 -78.9047 270° West 445 512 34,000  Level Cleveland Center
10:24AM 40.1425 -79.0650 270° West 445 512 34,000  Level Cleveland Center
10:25AM 40.1425 -79.2278 270° West 445 512 34,000  Level Cleveland Center
10:26AM 40.1422 -79.3853 270° West 440 506 34,000  Level Cleveland Center
10:27AM 40.1439 -79.5511 271° West 440 506 34,000  Level Cleveland Center
10:28AM 40.1408 -79.7114 269° West 440 506 34,000  Level Cleveland Center
10:29AM 40.1381 -79.8744 269° West 440 506 34,000  Level Cleveland Center
10:30AM 40.1492 -80.0317 275° West 440 506 34,000  Level Cleveland Center
10:31AM 40.2247 -80.1561 309° West 412 474 34,000  Level Cleveland Center
10:32AM 40.3106 -80.2728 314° West 428 493 34,000  Level Cleveland Center
10:33AM 40.4006 -80.3867 316° Northwest 434 499 34,000  Level Cleveland Center
10:34AM 40.4861 -80.4958 316° Northwest 434 499 34,000 -900 Level Cleveland Center
10:35AM 40.5736 -80.6078 316° Northwest 434 499 32,200 -2,000 Descending Cleveland Center
10:36AM 40.6611 -80.7253 314° West 434 499 30,000 -1,109 Descending Cleveland Center
10:37AM 40.7172 -80.8350 304° West 421 484 30,000  Level Cleveland Center
10:38AM 40.7753 -80.9561 302° West 398 458 30,000  Level Cleveland Center
10:39AM 40.8353 -81.0744 304° West 388 447 30,000  Level Cleveland Center
10:40AM 40.8911 -81.1872 303° West 388 447 30,000  Level Cleveland Center
10:41AM 40.9467 -81.3061 302° West 388 447 30,000 -300 Level Cleveland Center
10:42AM 41.0042 -81.4278 302° West 388 447 29,400 -650 Descending Cleveland Center
10:43AM 41.0783 -81.5333 313° West 378 435 28,700 -700 Descending Cleveland Center
10:44AM 41.1675 -81.5872 336° Northwest 354 407 28,000 -446 Descending Cleveland Center
10:45AM 41.2358 -81.6322 334° Northwest 347 399 27,800 -700 Descending Cleveland Center
10:46AM 41.3081 -81.7331 314° West 326 375 26,600 -900 Descending Cleveland Center
10:47AM 41.3233 -81.8467 280° West 325 374 26,000 -400 Descending Cleveland Center
10:48AM 41.3364 -81.9769 278° West 335 386 25,800 -605 Descending Cleveland Center
10:49AM 41.3514 -82.1072 279° West 360 414 24,800 -1,450 Descending Cleveland Center
10:50AM 41.3622 -82.2292 277° West 351 404 22,900 -1,750 Descending Cleveland Center
10:51AM 41.3731 -82.3486 277° West 339 390 21,300 -1,750 Descending Cleveland Center
10:52AM 41.3858 -82.4650 278° West 329 379 19,400 -1,700 Descending Cleveland Center
10:53AM 41.4025 -82.5819 281° West 318 366 17,900 -1,650 Descending Cleveland Center
10:54AM 41.4706 -82.6283 333° Northwest 247 284 16,100 -1,450 Descending Cleveland Center
10:55AM 41.5386 -82.6664 337° Northwest 257 296 15,000 -1,100 Descending Cleveland Center
10:56AM 41.6075 -82.6606 North 257 296 13,900 -1,250 Descending Cleveland Center
10:57AM 41.6783 -82.6711 354° North 251 289 12,500 -1,226 Descending Cleveland Center
10:58AM 41.6961 -82.7161 298° West 274 315 12,000 -500 Descending Cleveland Center
10:58AM 41.7142 -82.7583 300° West 226 260 12,000  Level Cleveland Center
10:59AM 41.7689 -82.8356 314° West 252 290 12,000 -298 Level Cleveland Center
11:00AM 41.8078 -82.8786 320° Northwest 237 273 11,400 -1,036 Descending Cleveland Center
11:01AM 41.8503 -82.9331 316° Northwest 225 259 10,100 -1,300 Descending Cleveland Center
11:02AM 41.8697 -83.0092 289° West 203 234 8,800 -1,289 Descending Cleveland Center
11:03AM 41.8783 -83.0903 278° West 214 246 7,500 -1,050 Descending Cleveland Center
11:04AM 41.8978 -83.1553 292° West 214 246 6,700 -1,040 Descending Cleveland Center
11:05AM 41.9075 -83.1808 297° West 212 244 6,200 -700 Descending Cleveland Center
11:05AM 41.9231 -83.2289 294° West 209 241 6,000 -197 Descending Cleveland Center
11:06AM 41.9308 -83.2600 289° West 211 243 6,000 -600 Level Cleveland Center
11:06AM 41.9531 -83.2886 316° Northwest 204 235 5,400 -1,082 Descending Cleveland Center
11:07AM 41.9692 -83.3117 313° West 195 224 4,900 -1,220 Descending Cleveland Center
11:07AM 41.9936 -83.3408 318° Northwest 204 235 4,200 -1,279 Descending Cleveland Center
11:08AM 42.0117 -83.3611 320° Northwest 199 229 3,600 -900 Descending Cleveland Center
11:09AM 42.0631 -83.3997 331° Northwest 200 230 3,000 -590 Descending Cleveland Center